Volver al catálogo

THORAD AGENA D DEB

ActivoSSO
NORAD 42490·DEBRIS·🇺🇸 United States

Lanzado Apr 8, 1970 desde Vandenberg Space Force Base

Loading…

Próximos Pases (próximas 24 horas)

TLE

EnvejeciendoSource: Space-Track

Época: Sep 4, 2026, 01:14 UTC

1 42490U 70025QU  26247.05142025  .00000464  00000-0  73050-3 0  9995
2 42490  99.9435 186.5396 0112525 274.7156  84.1136 13.53426416583224

Sigue THORAD AGENA D DEB en tiempo real con AllMySat

Download on the App Store